Weather in Yelabuga

Russia / Khabarovsk Krai     48°47′55″N   135°51′46″E
temp.,
°C
wind,
m/s
gust,
m/s
humid.,
%
clouds,
%
prec.,
mm/h
press.,
hPa
HPBL,
m
26 february, fri
fri2601:00−23sw239358 0.0 102520
04:00−23s239573 0.0 102543
07:00−23ssw229599 0.0 102653
10:00−21ssw239399 0.0 1027200
13:00−17sw348797 0.1 1027445
16:00−15wsw348898 0.1 1027445
19:00−20sw239665 0.0 103020
22:00−21ssw349633 0.0 103236
27 february, sat
sat2701:00−22s34950 0.0 103451
04:00−23s34950 0.0 103553
07:00−23s46960 0.0 103690
10:00−19ssw47916 0.0 1034234
13:00−14ssw468633 0.0 1033394
16:00−11sw358267 0.0 1029450
19:00−13ese1189100 0.0 102620
22:00−12sse1289100 0.0 102420
28 february, sun
sun2801:00−9ssw3888100 0.0 1021253
04:00−7ssw51195100 1.2 1018541
07:00−6sw51295100 1.8 1017620
10:00−5wsw61193100 2.5 1016660
13:00−7wsw71187100 0.0 1016437
16:00−7wsw71186100 0.0 1016605
19:00−9wsw61375100 0.0 1020414
22:00−14wsw71674100 0.0 1022421
1 march, mon
mon101:00−17wsw9167740 0.0 1024391
04:00−18wsw9177520 0.0 1026486
07:00−20wsw816770 0.0 1028488
10:00−19wsw815730 0.0 1030644
13:00−15w914640 0.0 10291030
16:00−14wsw812670 0.0 10301125
19:00−17wsw613760 0.0 1031320
22:00−20wsw48860 0.0 1032138
2 march, tue
tue201:00−22wsw58860 0.0 1032139
04:00−24sw510860 0.0 1032170
07:00−24sw511810 0.0 1033218
10:00−22wsw49800 0.0 1033347
13:00−17wsw46740 0.0 1031613
16:00−16wsw57780 0.0 1030488
19:00−21wsw35850 0.0 103055
22:00−22sw33870 0.0 103232